Location: Camp Roosevelt
(41.7914°N, 81.1673°W)
Time: 18:16:22
(UTC+00:00)

CZ-4 R/B - Pass Details

Date: 29 October 2020
Orbit: 531 x 599 km, 97.7° (Epoch: 23 November)

Event Time Altitude Azimuth Distance (km) Brightness Sun altitude
Rises 23:46:01 0° 159° (SSE) 2,698 4.7 -16.1°
Reaches altitude 10° 23:48:09 10° 156° (SSE) 1,801 3.7 -16.5°
Maximum altitude 23:51:59 65° 75° (ENE) 595 1.2 -17.3°
Drops below altitude 10° 23:55:49 10° 354° (N) 1,794 4.0 -18.0°
Sets 23:57:56 0° 351° (N) 2,687 4.9 -18.4°
